Погода в Демяхах

Россия / Тверская область     55°43′06″N   32°46′25″E
темп.,
°C
ветер,
м/с
пор.,
м/с
влажн.,
%
обл.,
%
осадки,
мм/ч
давл.,
гПа
погр.,
м
20 января, чт
чт2000:00−1юз51296100 0.0 1008638
03:00−1юз51195100 0.1 1006532
06:00−2ююз51195100 0.0 1004487
09:00−2ю51494100 0.0 1001517
12:00−1ю61594100 0.0 999733
15:00−1ююз61392100 0.1 9961012
18:00−2ююз61296100 1.1 995927
21:00−2ююз61291100 1.8 994948
21 января, пт
пт2100:00−3ююз51290100 0.1 995817
03:00−3ююз51086100 0.2 994885
06:00−3ю51093100 0.3 993806
09:00−7ююв5129071 0.3 993452
12:00−7ююв41193100 0.0 993495
15:00−6юв41094100 0.3 992539
18:00−6вюв4995100 0.4 992432
21:00−6в3795100 0.9 993320
22 января, сб
сб2200:00−7всв3796100 0.3 995240
03:00−7св3796100 0.6 997275
06:00−8ссв389585 0.3 1000281
09:00−9ссв389587 0.3 1003242
12:00−8ссв3793100 0.1 1006331
15:00−6св369499 0.4 1008483
18:00−8ссв379583 0.1 1012261
21:00−11ссв269871 0.3 1015107
23 января, вс
вс2300:00−14ссв249980 0.0 101858
03:00−17св1110087 0.1 102113
06:00−16св2210083 0.0 102432
09:00−17св249978 0.1 102757
12:00−11всв249471 0.0 1029161
15:00−8св239388 0.0 1031248
18:00−15ссв119975 0.0 10349
21:00−16в249967 0.0 103551
24 января, пн
пн2400:00−20св1110065 0.0 10379
03:00−21св1110089 0.0 10379
06:00−22в1110098 0.0 10379
09:00−22всв11100100 0.0 10379
12:00−12всв019583 0.0 103681
15:00−9ююз019260 0.0 1034139
18:00−16ююв0010075 0.0 10349
21:00−19ююв22100100 0.0 103314